Beauvechain, Belgium

9:17 AM CEST on April 27, 2018 (GMT +0200)
Beauvechain Air Base

Weather History for EBBE - November, 2012

Change the Weather History Date:

Thursday, November 8, 2012

  Actual Average Record
Temperature  
Mean Temperature 48 °F -  
Max Temperature 49 °F 43 °F 63 °F (2015)
Min Temperature 46 °F 38 °F 33 °F (2016)
Degree Days  
Heating Degree Days 18    
Moisture  
Dew Point 43 °F    
Average Humidity 82    
Maximum Humidity 93    
Minimum Humidity 69    
Precipitation  
Precipitation 0.00 in - - ()
Sea Level Pressure  
Sea Level Pressure 30.12 in    
Wind  
Wind Speed 11 mph ()    
Max Wind Speed 16 mph    
Max Gust Speed -    
Visibility 7.4 miles    
Events      
Averages and records for this station are not official NWS values.
T = Trace of Precipitation, MM = Missing Value Source: Averaged Metar Reports

Daily Weather History Graph

Daily Weather History Graph

Search for Another Location

Airport or City:

Astronomy

Nov. 08, 2012 Rise Set
Actual Time 7:44 AM CET 5:03 PM CET
Civil Twilight 7:09 AM CET 5:39 PM CET
Nautical Twilight 6:30 AM CET 6:18 PM CET
Astronomical Twilight 5:51 AM CET 6:56 PM CET
Moon 12:45 AM CET (11/8) 2:11 PM CET (11/8)
Length of Visible Light 10h 29m
Length of Day
9h 18m
Waning Crescent, 35% of the Moon is Illuminated
Nov 8
Waning Crescent
Nov 13
New
Nov 20
First Quarter
Nov 28
Full
Dec 6
Last Quarter

Hourly Weather History & Observations

Time (CET) Temp. Windchill Dew Point Humidity Pressure Visibility Wind Dir Wind Speed Gust Speed Precip Events Conditions
12:25 AM 48.2 °F - 41.0 °F 76% 30.24 in 6.2 mi SW 13.8 mph - N/A   Overcast
1:00 AM 48 °F - 42 °F 72% 30.25 in 15 mi SW 13.4 mph - -   Mostly Cloudy
1:25 AM 48.2 °F - 41.0 °F 76% 30.21 in 6.2 mi SW 12.7 mph - N/A   Overcast
2:25 AM 48.2 °F - 41.0 °F 76% 30.21 in 6.2 mi SW 12.7 mph - N/A   Overcast
3:25 AM 48.2 °F - 41.0 °F 76% 30.18 in 6.2 mi SW 12.7 mph - N/A   Overcast
4:00 AM 48 °F - 42 °F 71% 30.20 in 14 mi SSW 13.4 mph - -   Mostly Cloudy
4:25 AM 48.2 °F - 41.0 °F 76% 30.18 in 6.2 mi SSW 13.8 mph - N/A   Overcast
5:25 AM 48.2 °F - 41.0 °F 76% 30.15 in 6.2 mi SW 13.8 mph - N/A   Mostly Cloudy
6:25 AM 48.2 °F - 41.0 °F 76% 30.15 in 6.2 mi SW 12.7 mph - N/A   Mostly Cloudy
7:00 AM 48 °F - 42 °F 72% 30.16 in 12 mi SW 11.2 mph - -   Mostly Cloudy
7:25 AM 48.2 °F - 41.0 °F 76% 30.12 in 6.2 mi SW 11.5 mph - N/A   Mostly Cloudy
8:25 AM 48.2 °F - 41.0 °F 76% 30.15 in 6.2 mi SW 11.5 mph - N/A   Mostly Cloudy
9:25 AM 48.2 °F - 41.0 °F 76% 30.15 in 6.2 mi SW 11.5 mph - N/A   Mostly Cloudy
10:00 AM 48 °F - 42 °F 72% 30.15 in 14 mi SW 13.4 mph - -   Overcast
10:25 AM 48.2 °F - 42.8 °F 82% 30.12 in 6.2 mi SW 13.8 mph - N/A   Mostly Cloudy
11:25 AM 48.2 °F - 41.0 °F 76% 30.12 in 6.2 mi SW 12.7 mph - N/A   Mostly Cloudy
12:25 PM 48.2 °F - 42.8 °F 82% 30.12 in 6.2 mi SW 15.0 mph - N/A   Mostly Cloudy
1:00 PM 49 °F - 42 °F 69% 30.12 in 17 mi SW 13.4 mph - -   Overcast
1:25 PM 48.2 °F - 42.8 °F 82% 30.09 in 6.2 mi SW 12.7 mph - N/A   Mostly Cloudy
2:25 PM 48.2 °F - 42.8 °F 82% 30.09 in 6.2 mi SW 13.8 mph - N/A   Mostly Cloudy
2:30 PM 48.2 °F - 42.8 °F 82% 30.09 in 6.2 mi SW 13.8 mph - N/A   Mostly Cloudy
2:55 PM 48.2 °F - 42.8 °F 82% 30.09 in 6.2 mi SW 13.8 mph - N/A   Mostly Cloudy
3:25 PM 50.0 °F - 42.8 °F 76% 30.09 in 6.2 mi SW 16.1 mph - N/A   Mostly Cloudy
4:00 PM 49 °F - 43 °F 73% 30.10 in 15 mi SW 15.7 mph - -   Mostly Cloudy
4:25 PM 48.2 °F - 42.8 °F 82% 30.06 in 6.2 mi SW 12.7 mph - N/A   Mostly Cloudy
5:25 PM 46.4 °F 41.1 °F 42.8 °F 87% 30.06 in 6.2 mi SW 11.5 mph - N/A   Mostly Cloudy
6:03 PM 46.4 °F 41.9 °F 42.8 °F 87% 30.06 in 6.2 mi SW 9.2 mph - N/A   Mostly Cloudy
6:25 PM 46.4 °F 41.9 °F 42.8 °F 87% 30.06 in 6.2 mi SW 9.2 mph - N/A   Mostly Cloudy
6:45 PM 46.4 °F 41.5 °F 42.8 °F 87% 30.06 in 6.2 mi SW 10.4 mph - N/A   Mostly Cloudy
7:00 PM 47 °F - 44 °F 83% 30.10 in 9 mi SW 8.9 mph - -   Scattered Clouds
7:15 PM 46.4 °F 41.5 °F 42.8 °F 87% 30.06 in 6.2 mi SW 10.4 mph - N/A   Mostly Cloudy
7:25 PM 46.4 °F 41.1 °F 42.8 °F 87% 30.06 in 6.2 mi SW 11.5 mph - N/A   Overcast
7:50 PM 48.2 °F - 42.8 °F 82% 30.06 in 6.2 mi SW 11.5 mph - N/A   Mostly Cloudy
8:05 PM 46.4 °F 41.5 °F 42.8 °F 87% 30.09 in 6.2 mi SW 10.4 mph - N/A   Mostly Cloudy
8:25 PM 46.4 °F 41.5 °F 42.8 °F 87% 30.09 in 6.2 mi SW 10.4 mph - N/A   Overcast
8:30 PM 46.4 °F 41.1 °F 42.8 °F 87% 30.09 in 6.2 mi SW 11.5 mph - N/A   Overcast
8:45 PM 46.4 °F 41.1 °F 42.8 °F 87% 30.09 in 6.2 mi SW 11.5 mph - N/A   Overcast
9:25 PM 46.4 °F 41.5 °F 44.6 °F 93% 30.09 in 6.2 mi SW 10.4 mph - N/A   Mostly Cloudy
10:00 PM 47 °F - 44 °F 85% 30.11 in 7 mi SW 8.9 mph - -   Scattered Clouds
10:25 PM 46.4 °F 42.9 °F 44.6 °F 93% 30.09 in 6.2 mi SW 6.9 mph - N/A   Overcast
11:15 PM 46.4 °F 42.4 °F 44.6 °F 93% 30.09 in 5.6 mi SW 8.1 mph - N/A   Overcast
11:25 PM 46.4 °F 41.9 °F 44.6 °F 93% 30.09 in 5.6 mi SW 9.2 mph - N/A   Overcast
11:50 PM 46.4 °F 42.4 °F 44.6 °F 93% 30.09 in 6.2 mi SW 8.1 mph - N/A   Mostly Cloudy
11:56 PM 46.4 °F 42.4 °F 44.6 °F 93% 30.09 in 6.2 mi SW 8.1 mph - N/A   Mostly Cloudy